When you browse on this site, cookies collect data to enhance your experience and personalize the content and advertising you see.
Visit our Privacy Policy to learn more. By continuing to use the site, you agree to this use of cookies and data.
  • In Hungary
  • List of Countries
  • For 7 days
  • Water Temperature
  • Satellite Maps
  • Weather Map
  • News
  • Weather Widgets
  • user-avatar
    Login

    Hourly Weather Menton

    Today, 25 March, Monday

    Time Temperature Precipitation Wind Pressure Humidity
    00:00 +16°C° 0 mm 2 mps 758 mmHg 43%
    01:00 +16°C° 0 mm 2 mps 758 mmHg 43%
    02:00 +16°C° 0 mm 2 mps 758 mmHg 44%
    03:00 +15°C° 0 mm 1 mps 757 mmHg 45%
    04:00 +15°C° 0 mm 1 mps 757 mmHg 46%
    05:00 +15°C° 0 mm 1 mps 757 mmHg 47%
    06:00 +15°C° 0 mm 1 mps 756 mmHg 49%
    07:00 +14°C° 0 mm 2 mps 756 mmHg 50%
    08:00 +16°C° 0 mm 2 mps 756 mmHg 48%
    09:00 +18°C° 0 mm 2 mps 755 mmHg 45%
    10:00 +20°C° 0 mm 2 mps 755 mmHg 42%
    11:00 +21°C° 0 mm 2 mps 755 mmHg 43%
    12:00 +21°C° 0 mm 2 mps 754 mmHg 44%
    13:00 +22°C° 0 mm 3 mps 754 mmHg 45%
    14:00 +21°C° 0 mm 3 mps 753 mmHg 48%
    15:00 +21°C° 0 mm 2 mps 752 mmHg 52%
    16:00 +20°C° 0 mm 2 mps 751 mmHg 55%
    17:00 +19°C° 0 mm 2 mps 751 mmHg 64%
    18:00 +17°C° 0 mm 2 mps 750 mmHg 74%
    19:00 +16°C° 0 mm 2 mps 750 mmHg 83%
    20:00 +16°C° 0 mm 3 mps 750 mmHg 81%
    21:00 +14°C° 0 mm 3 mps 751 mmHg 80%
    22:00 +14°C° 0 mm 4 mps 751 mmHg 78%
    23:00 +14°C° 0.1 mm 5 mps 751 mmHg 67%

    Tomorrow, 26 March, Tuesday

    Time Temperature Precipitation Wind Pressure Humidity
    00:00 +12°C° 0.1 mm 7 mps 752 mmHg 56%
    01:00 +11°C° 0.1 mm 9 mps 752 mmHg 45%
    02:00 +11°C° 0.1 mm 9 mps 753 mmHg 40%
    03:00 +9°C° 0.1 mm 10 mps 754 mmHg 35%
    04:00 +9°C° 0.1 mm 11 mps 755 mmHg 30%
    05:00 +8°C° 0.2 mm 11 mps 756 mmHg 38%
    06:00 +7°C° 0.2 mm 11 mps 757 mmHg 47%
    07:00 +7°C° 0.2 mm 11 mps 758 mmHg 55%
    08:00 +7°C° 0 mm 10 mps 759 mmHg 51%
    09:00 +8°C° 0 mm 9 mps 759 mmHg 46%
    10:00 +10°C° 0 mm 9 mps 760 mmHg 42%
    11:00 +11°C° 0 mm 8 mps 760 mmHg 37%
    12:00 +12°C° 0 mm 7 mps 760 mmHg 31%
    13:00 +14°C° 0 mm 6 mps 760 mmHg 26%
    14:00 +15°C° 0 mm 6 mps 760 mmHg 23%
    15:00 +15°C° 0 mm 6 mps 759 mmHg 20%
    16:00 +15°C° 0 mm 6 mps 759 mmHg 18%
    17:00 +14°C° 0 mm 5 mps 759 mmHg 21%
    18:00 +12°C° 0 mm 5 mps 760 mmHg 24%
    19:00 +11°C° 0 mm 4 mps 760 mmHg 28%
    20:00 +11°C° 0 mm 4 mps 760 mmHg 28%
    21:00 +9°C° 0 mm 5 mps 761 mmHg 29%
    22:00 +9°C° 0 mm 5 mps 761 mmHg 29%
    23:00 +9°C° 0 mm 5 mps 762 mmHg 30%

    Day after tomorrow, 27 March, Wednesday

    Time Temperature Precipitation Wind Pressure Humidity
    00:00 +9°C° 0 mm 5 mps 762 mmHg 31%
    01:00 +9°C° 0 mm 5 mps 762 mmHg 32%
    02:00 +8°C° 0 mm 5 mps 762 mmHg 33%
    03:00 +8°C° 0 mm 5 mps 762 mmHg 34%
    04:00 +8°C° 0 mm 4 mps 762 mmHg 34%
    05:00 +8°C° 0 mm 4 mps 762 mmHg 35%
    06:00 +8°C° 0 mm 4 mps 762 mmHg 35%
    07:00 +8°C° 0 mm 4 mps 762 mmHg 35%
    08:00 +11°C° 0 mm 4 mps 762 mmHg 32%
    09:00 +13°C° 0 mm 3 mps 762 mmHg 28%
    10:00 +16°C° 0 mm 3 mps 762 mmHg 25%
    11:00 +17°C° 0 mm 4 mps 762 mmHg 25%
    12:00 +18°C° 0 mm 4 mps 762 mmHg 25%
    13:00 +19°C° 0 mm 5 mps 762 mmHg 25%
    14:00 +19°C° 0 mm 5 mps 762 mmHg 26%
    15:00 +19°C° 0 mm 4 mps 762 mmHg 28%
    16:00 +18°C° 0 mm 4 mps 761 mmHg 29%
    17:00 +17°C° 0 mm 4 mps 762 mmHg 35%
    18:00 +14°C° 0 mm 3 mps 762 mmHg 41%
    19:00 +12°C° 0 mm 3 mps 762 mmHg 46%
    20:00 +12°C° 0 mm 3 mps 763 mmHg 43%
    21:00 +11°C° 0 mm 3 mps 763 mmHg 39%
    22:00 +11°C° 0 mm 4 mps 764 mmHg 36%
    23:00 +11°C° 0 mm 4 mps 764 mmHg 37%

    28 March, Thursday

    Time Temperature Precipitation Wind Pressure Humidity
    00:00 +10°C° 0 mm 4 mps 765 mmHg 38%
    01:00 +10°C° 0 mm 4 mps 765 mmHg 39%
    02:00 +10°C° 0 mm 4 mps 765 mmHg 42%
    03:00 +10°C° 0 mm 4 mps 765 mmHg 45%
    04:00 +8°C° 0 mm 4 mps 765 mmHg 48%
    05:00 +8°C° 0 mm 5 mps 765 mmHg 49%
    06:00 +8°C° 0 mm 5 mps 765 mmHg 50%
    07:00 +9°C° 0 mm 5 mps 765 mmHg 52%
    08:00 +11°C° 0 mm 4 mps 765 mmHg 46%
    09:00 +13°C° 0 mm 4 mps 765 mmHg 41%
    10:00 +16°C° 0 mm 3 mps 765 mmHg 35%
    11:00 +17°C° 0 mm 4 mps 765 mmHg 34%
    12:00 +18°C° 0 mm 4 mps 765 mmHg 33%
    13:00 +19°C° 0 mm 4 mps 765 mmHg 32%
    14:00 +19°C° 0 mm 4 mps 764 mmHg 32%
    15:00 +19°C° 0 mm 4 mps 764 mmHg 33%
    16:00 +19°C° 0 mm 4 mps 764 mmHg 33%
    17:00 +17°C° 0 mm 4 mps 764 mmHg 37%
    18:00 +15°C° 0 mm 4 mps 764 mmHg 42%
    19:00 +13°C° 0 mm 3 mps 764 mmHg 47%
    20:00 +12°C° 0 mm 3 mps 765 mmHg 43%
    21:00 +12°C° 0 mm 3 mps 765 mmHg 40%
    22:00 +11°C° 0 mm 3 mps 766 mmHg 36%
    23:00 +11°C° 0 mm 4 mps 766 mmHg 37%

    29 March, Friday

    Time Temperature Precipitation Wind Pressure Humidity
    00:00 +11°C° 0 mm 4 mps 766 mmHg 38%
    01:00 +11°C° 0 mm 4 mps 766 mmHg 38%
    02:00 +10°C° 0 mm 4 mps 766 mmHg 40%
    03:00 +10°C° 0 mm 4 mps 766 mmHg 41%
    04:00 +10°C° 0 mm 4 mps 766 mmHg 43%
    05:00 +10°C° 0 mm 4 mps 766 mmHg 45%
    06:00 +10°C° 0 mm 4 mps 766 mmHg 48%
    07:00 +10°C° 0 mm 4 mps 766 mmHg 50%
    08:00 +12°C° 0 mm 4 mps 766 mmHg 45%
    09:00 +16°C° 0 mm 3 mps 766 mmHg 40%
    10:00 +18°C° 0 mm 3 mps 766 mmHg 35%
    11:00 +18°C° 0 mm 3 mps 766 mmHg 35%
    12:00 +19°C° 0 mm 4 mps 766 mmHg 34%
    13:00 +20°C° 0 mm 4 mps 765 mmHg 34%
    14:00 +19°C° 0 mm 4 mps 765 mmHg 36%
    15:00 +19°C° 0 mm 4 mps 765 mmHg 39%
    16:00 +18°C° 0 mm 4 mps 764 mmHg 41%
    17:00 +16°C° 0 mm 3 mps 764 mmHg 48%
    18:00 +15°C° 0 mm 2 mps 764 mmHg 55%
    19:00 +13°C° 0 mm 1 mps 765 mmHg 62%
    20:00 +13°C° 0 mm 2 mps 765 mmHg 61%
    21:00 +13°C° 0 mm 2 mps 765 mmHg 59%
    22:00 +13°C° 0 mm 2 mps 766 mmHg 58%
    23:00 +13°C° 0 mm 2 mps 766 mmHg 55%

    30 March, Saturday

    Time Temperature Precipitation Wind Pressure Humidity
    00:00 +12°C° 0 mm 2 mps 766 mmHg 52%
    01:00 +12°C° 0 mm 2 mps 766 mmHg 49%
    02:00 +12°C° 0 mm 2 mps 766 mmHg 49%
    03:00 +12°C° 0 mm 2 mps 766 mmHg 49%
    04:00 +10°C° 0 mm 2 mps 765 mmHg 49%
    05:00 +10°C° 0 mm 2 mps 765 mmHg 48%
    06:00 +10°C° 0 mm 2 mps 765 mmHg 48%
    07:00 +10°C° 0 mm 2 mps 765 mmHg 47%
    08:00 +14°C° 0 mm 2 mps 765 mmHg 43%
    09:00 +16°C° 0 mm 2 mps 765 mmHg 38%
    10:00 +18°C° 0 mm 2 mps 765 mmHg 34%
    11:00 +18°C° 0 mm 2 mps 765 mmHg 34%
    12:00 +19°C° 0 mm 3 mps 765 mmHg 34%
    13:00 +19°C° 0 mm 3 mps 764 mmHg 34%
    14:00 +19°C° 0 mm 3 mps 764 mmHg 37%
    15:00 +19°C° 0 mm 3 mps 763 mmHg 40%
    16:00 +18°C° 0 mm 3 mps 763 mmHg 43%
    17:00 +17°C° 0 mm 3 mps 763 mmHg 51%
    18:00 +14°C° 0 mm 3 mps 762 mmHg 58%
    19:00 +14°C° 0 mm 2 mps 762 mmHg 66%
    20:00 +14°C° 0 mm 2 mps 762 mmHg 65%
    21:00 +13°C° 0 mm 2 mps 763 mmHg 64%
    22:00 +13°C° 0 mm 2 mps 763 mmHg 63%
    23:00 +13°C° 0 mm 2 mps 762 mmHg 57%
    Show more